{"data":{"norad_id":68426,"intl_designator":"2026-067L","name":"TRANSPORTER-16 OBJECT L","alt_names":[],"object_type":"PAYLOAD","status":"ACTIVE","operator":null,"country":"TBD","launch_date":"2026-03-30","launch_site_code":"AFWTR","launch_vehicle":null,"mission":null,"orbit_class":"UNKNOWN","rcs_meters":null,"size_class":null,"mass_kg":null,"dimensions":null,"purposes":[],"wikipedia_slug":null,"has_3d_model":false,"image_url":null,"decayed_at":null,"tle_current":{"epoch":"2026-05-24T20:23:21.640128Z","epoch_age_seconds":81902,"freshness":"FRESH","line1":"1 68426U 26067L   26144.84955602  .00010206  00000+0  48838-3 0  9995","line2":"2 68426  97.4529 103.7138 0004005  78.9083 281.2601 15.19155838  8409","mean_motion":15.19155838,"eccentricity":0.0004005,"inclination_deg":97.4529,"raan_deg":103.7138,"arg_perigee_deg":78.9083,"mean_anomaly_deg":281.2601,"bstar":0.00048838,"rev_number":840,"period_min":94.789485316779,"perigee_km":505.6325081838,"apogee_km":511.14861676134,"semimajor_km":6886.5275624726,"source":"CELESTRAK","updated_at":"2026-05-25T13:38:07.813151Z"}}}